Location: Clatteringshaws Loch
(55.0508°N, 4.2860°W)
Time: 09:00:48
(UTC+01:00)

SR - Visible Passes

Search period start: 26 April 2017 00:00
Search period end: 06 May 2017 00:00
Orbit: 573 x 884 km, 66.7° (Epoch: 24 April)

Date Brightness Start Highest point End Pass type
(mag) Time Alt. Az. Time Alt. Az. Time Alt. Az.
28 Apr ? 04:23:52 10° ESE 04:25:44 12° E 04:27:37 10° E visible
30 Apr ? 04:24:25 10° SSE 04:28:23 20° ESE 04:32:29 10° ENE visible
01 May ? 03:37:57 10° ESE 03:39:33 11° E 03:41:11 10° E visible
02 May ? 04:26:15 10° S 04:31:12 31° ESE 04:36:19 10° NE visible
03 May ? 03:38:19 10° SSE 03:42:13 19° ESE 03:46:12 10° ENE visible
04 May ? 02:52:08 10° ESE 02:53:23 11° E 02:54:40 10° E visible
04 May ? 04:28:40 10° SSW 04:34:09 48° ESE 04:39:51 10° NE visible
05 May ? 03:40:05 10° S 03:45:00 30° ESE 03:50:05 10° NE visible
